• In United Kingdom
  • List of Countries
  • For 7 days
  • Water Temperature
  • Satellite Maps
  • Weather Map
  • Weather Widgets
  • user-avatar
    Login

    Hourly Weather Campeche

    Today, 17 July, Tuesday

    Time Temperature Precipitation Wind Pressure Humidity
    00:00 +27°C° 0 mm 1 mps 761 mmHg 83%
    01:00 +27°C° 0 mm 1 mps 761 mmHg 87%
    02:00 +26°C° 0 mm 1 mps 760 mmHg 91%
    03:00 +25°C° 0 mm 1 mps 760 mmHg 94%
    04:00 +25°C° 0 mm 1 mps 760 mmHg 95%
    05:00 +25°C° 0 mm 1 mps 760 mmHg 96%
    06:00 +25°C° 0 mm 1 mps 760 mmHg 97%
    07:00 +28°C° 0 mm 1 mps 761 mmHg 82%
    08:00 +30°C° 0 mm 1 mps 761 mmHg 68%
    09:00 +34°C° 0 mm 2 mps 761 mmHg 54%
    10:00 +36°C° 0 mm 2 mps 761 mmHg 46%
    11:00 +38°C° 0 mm 2 mps 760 mmHg 39%
    12:00 +40°C° 0 mm 2 mps 760 mmHg 32%
    13:00 +41°C° 0 mm 2 mps 760 mmHg 30%
    14:00 +41°C° 0 mm 2 mps 759 mmHg 28%
    15:00 +42°C° 0 mm 2 mps 758 mmHg 27%
    16:00 +40°C° 0 mm 2 mps 758 mmHg 32%
    17:00 +38°C° 0 mm 2 mps 758 mmHg 38%
    18:00 +37°C° 0 mm 2 mps 758 mmHg 44%
    19:00 +34°C° 0.3 mm 2 mps 758 mmHg 53%
    20:00 +31°C° 0.3 mm 1 mps 759 mmHg 63%
    21:00 +29°C° 0.3 mm 1 mps 760 mmHg 73%
    22:00 +28°C° 0 mm 1 mps 760 mmHg 75%
    23:00 +28°C° 0 mm 1 mps 760 mmHg 77%

    Tomorrow, 18 July, Wednesday

    Time Temperature Precipitation Wind Pressure Humidity
    00:00 +27°C° 0 mm 1 mps 760 mmHg 79%
    01:00 +27°C° 0 mm 1 mps 760 mmHg 83%
    02:00 +26°C° 0 mm 1 mps 759 mmHg 87%
    03:00 +25°C° 0 mm 1 mps 759 mmHg 91%
    04:00 +25°C° 0 mm 1 mps 759 mmHg 93%
    05:00 +25°C° 0 mm 1 mps 759 mmHg 95%
    06:00 +25°C° 0 mm 1 mps 759 mmHg 98%
    07:00 +27°C° 0 mm 1 mps 760 mmHg 86%
    08:00 +29°C° 0 mm 1 mps 760 mmHg 74%
    09:00 +32°C° 0 mm 2 mps 760 mmHg 63%
    10:00 +35°C° 0 mm 2 mps 760 mmHg 52%
    11:00 +38°C° 0 mm 2 mps 760 mmHg 41%
    12:00 +40°C° 0 mm 2 mps 759 mmHg 31%
    13:00 +40°C° 0 mm 2 mps 759 mmHg 30%
    14:00 +41°C° 0 mm 2 mps 758 mmHg 30%
    15:00 +41°C° 0 mm 2 mps 757 mmHg 29%
    16:00 +39°C° 0 mm 2 mps 757 mmHg 36%
    17:00 +37°C° 0 mm 2 mps 757 mmHg 42%
    18:00 +35°C° 0 mm 2 mps 757 mmHg 48%
    19:00 +32°C° 0.7 mm 1 mps 758 mmHg 60%
    20:00 +30°C° 0.7 mm 1 mps 758 mmHg 71%
    21:00 +28°C° 0.7 mm 1 mps 759 mmHg 83%
    22:00 +27°C° 0 mm 1 mps 759 mmHg 85%
    23:00 +27°C° 0 mm 1 mps 759 mmHg 86%

    Day after tomorrow, 19 July, Thursday

    Time Temperature Precipitation Wind Pressure Humidity
    00:00 +26°C° 0 mm 1 mps 759 mmHg 88%
    01:00 +26°C° 0 mm 1 mps 759 mmHg 90%
    02:00 +26°C° 0 mm 1 mps 758 mmHg 92%
    03:00 +25°C° 0 mm 1 mps 758 mmHg 94%
    04:00 +25°C° 0 mm 1 mps 758 mmHg 95%
    05:00 +25°C° 0 mm 1 mps 758 mmHg 96%
    06:00 +25°C° 0 mm 1 mps 758 mmHg 97%
    07:00 +28°C° 0 mm 1 mps 759 mmHg 85%
    08:00 +30°C° 0 mm 2 mps 759 mmHg 74%
    09:00 +32°C° 0 mm 2 mps 759 mmHg 63%
    10:00 +36°C° 0 mm 2 mps 759 mmHg 54%
    11:00 +38°C° 0 mm 2 mps 758 mmHg 45%
    12:00 +40°C° 0 mm 2 mps 758 mmHg 36%
    13:00 +40°C° 0 mm 2 mps 757 mmHg 35%
    14:00 +41°C° 0 mm 2 mps 757 mmHg 33%
    15:00 +41°C° 0 mm 2 mps 756 mmHg 32%
    16:00 +39°C° 0 mm 2 mps 756 mmHg 37%
    17:00 +38°C° 0 mm 2 mps 756 mmHg 43%
    18:00 +36°C° 0 mm 2 mps 756 mmHg 48%
    19:00 +33°C° 0 mm 1 mps 757 mmHg 54%
    20:00 +32°C° 0 mm 1 mps 757 mmHg 59%
    21:00 +30°C° 0 mm 1 mps 758 mmHg 64%
    22:00 +29°C° 0 mm 1 mps 758 mmHg 69%
    23:00 +28°C° 0 mm 1 mps 758 mmHg 73%

    20 July, Friday

    Time Temperature Precipitation Wind Pressure Humidity
    00:00 +27°C° 0 mm 1 mps 758 mmHg 78%
    01:00 +27°C° 0 mm 1 mps 758 mmHg 82%
    02:00 +26°C° 0 mm 1 mps 758 mmHg 87%
    03:00 +25°C° 0 mm 1 mps 758 mmHg 91%
    04:00 +25°C° 0 mm 1 mps 758 mmHg 93%
    05:00 +25°C° 0 mm 1 mps 758 mmHg 95%
    06:00 +25°C° 0 mm 1 mps 758 mmHg 97%
    07:00 +28°C° 0 mm 2 mps 758 mmHg 84%
    08:00 +30°C° 0 mm 2 mps 759 mmHg 70%
    09:00 +34°C° 0 mm 2 mps 759 mmHg 57%
    10:00 +36°C° 0 mm 2 mps 759 mmHg 47%
    11:00 +38°C° 0 mm 2 mps 758 mmHg 37%
    12:00 +41°C° 0 mm 2 mps 758 mmHg 28%
    13:00 +41°C° 0 mm 2 mps 757 mmHg 26%
    14:00 +42°C° 0 mm 2 mps 756 mmHg 25%
    15:00 +42°C° 0 mm 2 mps 756 mmHg 24%
    16:00 +40°C° 0 mm 2 mps 756 mmHg 29%
    17:00 +39°C° 0 mm 2 mps 756 mmHg 35%
    18:00 +37°C° 0 mm 2 mps 756 mmHg 41%
    19:00 +35°C° 0 mm 2 mps 757 mmHg 47%
    20:00 +32°C° 0 mm 2 mps 758 mmHg 54%
    21:00 +31°C° 0 mm 1 mps 758 mmHg 60%
    22:00 +30°C° 0 mm 1 mps 758 mmHg 64%
    23:00 +29°C° 0 mm 1 mps 759 mmHg 68%

    21 July, Saturday

    Time Temperature Precipitation Wind Pressure Humidity
    00:00 +28°C° 0 mm 1 mps 759 mmHg 72%
    01:00 +27°C° 0 mm 1 mps 758 mmHg 77%
    02:00 +27°C° 0 mm 1 mps 758 mmHg 82%
    03:00 +26°C° 0 mm 1 mps 758 mmHg 88%
    04:00 +26°C° 0 mm 1 mps 758 mmHg 91%
    05:00 +25°C° 0 mm 1 mps 758 mmHg 94%
    06:00 +25°C° 0 mm 1 mps 759 mmHg 97%
    07:00 +27°C° 0 mm 1 mps 759 mmHg 84%
    08:00 +30°C° 0 mm 2 mps 759 mmHg 71%
    09:00 +34°C° 0 mm 2 mps 760 mmHg 58%
    10:00 +36°C° 0 mm 2 mps 759 mmHg 50%
    11:00 +38°C° 0 mm 2 mps 759 mmHg 42%
    12:00 +40°C° 0 mm 2 mps 758 mmHg 34%
    13:00 +39°C° 0 mm 2 mps 758 mmHg 37%
    14:00 +38°C° 0 mm 2 mps 757 mmHg 40%
    15:00 +38°C° 0 mm 2 mps 757 mmHg 43%
    16:00 +37°C° 0 mm 2 mps 757 mmHg 47%
    17:00 +36°C° 0 mm 2 mps 757 mmHg 50%
    18:00 +34°C° 0 mm 2 mps 758 mmHg 54%
    19:00 +32°C° 0.2 mm 2 mps 758 mmHg 61%
    20:00 +30°C° 0.2 mm 1 mps 759 mmHg 68%
    21:00 +29°C° 0.2 mm 1 mps 759 mmHg 75%
    22:00 +29°C° 0 mm 1 mps 759 mmHg 76%
    23:00 +28°C° 0 mm 1 mps 759 mmHg 78%

    22 July, Sunday

    Time Temperature Precipitation Wind Pressure Humidity
    00:00 +28°C° 0 mm 2 mps 760 mmHg 80%
    01:00 +27°C° 0 mm 1 mps 759 mmHg 82%
    02:00 +27°C° 0 mm 1 mps 759 mmHg 85%
    03:00 +27°C° 0 mm 1 mps 759 mmHg 88%
    04:00 +26°C° 0 mm 1 mps 759 mmHg 91%
    05:00 +26°C° 0 mm 1 mps 759 mmHg 93%
    06:00 +26°C° 0 mm 1 mps 759 mmHg 96%
    07:00 +28°C° 0 mm 1 mps 760 mmHg 83%
    08:00 +31°C° 0 mm 1 mps 760 mmHg 69%
    09:00 +34°C° 0 mm 2 mps 760 mmHg 56%
    10:00 +37°C° 0 mm 2 mps 759 mmHg 48%
    11:00 +39°C° 0 mm 2 mps 759 mmHg 40%
    12:00 +41°C° 0 mm 2 mps 758 mmHg 32%
    13:00 +41°C° 0 mm 2 mps 758 mmHg 31%
    14:00 +41°C° 0 mm 2 mps 757 mmHg 29%
    15:00 +42°C° 0 mm 2 mps 757 mmHg 27%
    16:00 +40°C° 0 mm 2 mps 757 mmHg 33%
    17:00 +39°C° 0 mm 2 mps 757 mmHg 38%
    18:00 +37°C° 0 mm 2 mps 757 mmHg 43%
    19:00 +35°C° 0 mm 2 mps 758 mmHg 50%
    20:00 +32°C° 0 mm 2 mps 758 mmHg 57%
    21:00 +30°C° 0 mm 1 mps 759 mmHg 64%
    22:00 +29°C° 0 mm 1 mps 759 mmHg 69%
    23:00 +28°C° 0 mm 1 mps 759 mmHg 73%
    Show more